[[{"header":{"parameterUnit":"m.s-1","parameterCategory":1,"la1":30.2992,"la2":30.254,"lo1":-89.0895,"lo2":-89.0443,"dy":0.0025,"dx":0.0025,"nx":19,"ny":19,"refTime":"2026-03-28T09:00:00:Z","depth":0,"parameterNumber":2,"parameterNumberName":"U-component_of_WINDS"},"data":[0,0,0,-1.6633,-1.6634,-1.6682,-1.6682,-1.6749,-1.675,0,0,0,0,0,0,0,0,0,0,0,-1.6622,-1.6623,-1.6633,-1.6634,-1.6682,-1.6682,-1.6749,-1.675,0,0,0,0,0,0,0,0,0,0,0,-1.6622,-1.6622,-1.6623,-1.6634,-1.6682,-1.6682,-1.6749,-1.6711,0,0,0,0,0,0,0,0,0,0,-1.6663,-1.6657,-1.6622,-1.6623,-1.6634,-1.6682,-1.6682,-1.6709,-1.6713,-1.673,0,-1.6746,0,-1.6749,-1.6755,-1.6755,0,0,0,-1.6631,-1.6653,-1.6663,-1.6623,-1.6635,-1.6682,-1.6659,-1.6711,-1.6716,-1.6736,-1.6747,-1.6749,-1.675,-1.6755,-1.6756,-1.6862,-1.6863,0,0,-1.6628,-1.6633,-1.6659,-1.6666,-1.6659,-1.6658,-1.6661,-1.6714,-1.6726,-1.6747,-1.6751,-1.6751,-1.6756,-1.6756,-1.6862,-1.6863,0,0,0,-1.6623,-1.6631,-1.6639,-1.6664,-1.6672,-1.6659,-1.6663,-1.6724,-1.6726,-1.6751,-1.6752,-1.6756,-1.6757,-1.6861,-1.6862,-1.6898,0,0,0,-1.6621,-1.6628,-1.6638,-1.6641,-1.6671,-1.6699,-1.6672,-1.6723,-1.6729,-1.6752,-1.6756,-1.6758,-1.686,-1.6862,-1.6895,-1.6915,0,0,0,-1.6618,-1.6627,-1.6635,-1.6641,-1.6662,-1.6698,-1.6703,-1.6724,-1.6729,-1.6755,-1.6758,-1.686,-1.6861,-1.6893,-1.6911,-1.6944,0,0,0,-1.6615,-1.6667,-1.6636,-1.6693,-1.6662,-1.6719,-1.6703,-1.6745,-1.6771,-1.6756,-1.686,-1.6862,-1.6893,-1.6909,-1.6942,-1.6974,-1.6988,0,0,-1.6682,-1.6675,-1.6708,-1.6682,-1.6746,-1.6711,-1.6781,-1.6801,-1.6799,-1.6841,-1.6844,-1.6896,-1.6911,-1.6944,-1.706,-1.7071,0,0,0,-1.6731,-1.6755,-1.6771,-1.6796,-1.6812,-1.6828,-1.6837,-1.6844,-1.688,-1.6822,-1.6917,-1.6925,-1.6944,-1.696,-1.6969,-1.6985,-1.6869,-1.6869,-1.6869,-1.6832,-1.6827,-1.6882,-1.6883,-1.6907,-1.6915,-1.6935,-1.6946,-1.6934,-1.6956,-1.6969,-1.704,-1.7058,-1.7065,-1.7082,-1.6984,-1.6985,-1.6985,-1.6985,-1.6931,-1.6964,-1.6946,-1.6993,-1.6987,-1.7025,-1.7035,-1.7025,-1.706,-1.703,-1.7047,-1.7016,-1.7077,-1.7092,-1.6988,-1.6987,-1.6987,-1.6986,-1.6986,-1.6998,-1.7013,-1.7021,-1.7056,-1.7084,-1.7082,-1.7117,-1.711,-1.7104,-1.712,-1.7133,-1.7133,-1.7132,-1.7127,-1.7127,-1.7127,-1.7127,-1.7127,-1.7128,-1.7065,-1.7072,-1.7103,-1.7124,-1.7139,-1.7158,-1.7165,-1.718,-1.7194,-1.7186,-1.7186,-1.7172,-1.7083,-1.7062,-1.7131,-1.7131,-1.713,-1.713,-1.713,-1.7169,-1.7144,-1.7191,-1.7206,-1.723,-1.7258,-1.7248,-1.7278,-1.7288,-1.7306,-1.7287,-1.7222,-1.7214,-1.7207,-1.7189,-1.7288,-1.7288,-1.7288,-1.7288,-1.7227,-1.7221,-1.7267,-1.7292,-1.7315,-1.731,-1.7363,-1.7369,-1.7371,-1.7378,-1.7362,-1.7337,-1.733,-1.7326,-1.7316,-1.73,-1.7424,-1.7424,-1.7424,-1.729,-1.7287,-1.7334,-1.7336,-1.7353,-1.7368,-1.7418,-1.7446,-1.7444,-1.743,-1.7383,-1.7377,-1.7337,-1.7324,-1.7311,-1.7296,-1.7265,0,0]},{"header":{"parameterUnit":"m.s-1","parameterCategory":1,"la1":30.2992,"la2":30.254,"lo1":-89.0895,"lo2":-89.0443,"dy":0.0025,"dx":0.0025,"nx":19,"ny":19,"refTime":"2026-03-28T09:00:00:Z","depth":0,"parameterNumber":3,"parameterNumberName":"V-component_of_WINDS"},"data":[0,0,0,-4.5002,-4.5003,-4.5022,-4.5022,-4.5046,-4.5046,0,0,0,0,0,0,0,0,0,0,0,-4.4997,-4.4997,-4.5002,-4.5003,-4.5022,-4.5022,-4.5046,-4.5046,0,0,0,0,0,0,0,0,0,0,0,-4.4997,-4.4997,-4.4998,-4.5003,-4.5022,-4.5022,-4.5046,-4.5032,0,0,0,0,0,0,0,0,0,0,-4.5013,-4.5009,-4.4997,-4.4998,-4.5003,-4.5022,-4.5022,-4.5031,-4.5032,-4.5038,0,-4.5044,0,-4.5046,-4.5048,-4.5048,0,0,0,-4.5002,-4.5008,-4.5012,-4.4998,-4.5003,-4.5022,-4.5013,-4.5032,-4.5034,-4.504,-4.5044,-4.5045,-4.5046,-4.5048,-4.5049,-4.5086,-4.5087,0,0,-4.5001,-4.5,-4.5011,-4.5014,-4.5012,-4.5012,-4.5013,-4.5033,-4.5037,-4.5044,-4.5045,-4.5046,-4.5049,-4.5049,-4.5086,-4.5086,0,0,0,-4.4998,-4.5,-4.5004,-4.5013,-4.5016,-4.5013,-4.5014,-4.5036,-4.5037,-4.5046,-4.5047,-4.5049,-4.5049,-4.5086,-4.5086,-4.5098,0,0,0,-4.4998,-4.4998,-4.5004,-4.5004,-4.5016,-4.5026,-4.5017,-4.5036,-4.5038,-4.5047,-4.5049,-4.5049,-4.5086,-4.5086,-4.5097,-4.5104,0,0,0,-4.4996,-4.4998,-4.5001,-4.5004,-4.5012,-4.5026,-4.5029,-4.5036,-4.5039,-4.5048,-4.5049,-4.5085,-4.5086,-4.5097,-4.5102,-4.5115,0,0,0,-4.4993,-4.501,-4.5002,-4.5021,-4.5012,-4.5034,-4.5029,-4.5044,-4.5054,-4.5049,-4.5086,-4.5086,-4.5096,-4.5102,-4.5114,-4.5125,-4.513,0,0,-4.5014,-4.5012,-4.5024,-4.5017,-4.5041,-4.5031,-4.5056,-4.5063,-4.5063,-4.5078,-4.5079,-4.5098,-4.5102,-4.5114,-4.5156,-4.5159,0,0,0,-4.5031,-4.5039,-4.5045,-4.5056,-4.5063,-4.5071,-4.5075,-4.5078,-4.5092,-4.5071,-4.5105,-4.5108,-4.5115,-4.512,-4.5124,-4.513,-4.5089,-4.5089,-4.5088,-4.506,-4.5061,-4.5081,-4.5085,-4.5095,-4.5101,-4.5109,-4.5114,-4.511,-4.5118,-4.5123,-4.5148,-4.5154,-4.5157,-4.5164,-4.5129,-4.5129,-4.5129,-4.5129,-4.5091,-4.5104,-4.5102,-4.512,-4.5121,-4.5136,-4.5143,-4.514,-4.5154,-4.5144,-4.515,-4.514,-4.5161,-4.5167,-4.513,-4.513,-4.5129,-4.5129,-4.5129,-4.5111,-4.5117,-4.5123,-4.5139,-4.5152,-4.5155,-4.5169,-4.5169,-4.5169,-4.5175,-4.5181,-4.518,-4.5181,-4.5178,-4.5178,-4.5178,-4.5178,-4.5178,-4.5178,-4.5129,-4.5135,-4.5148,-4.516,-4.5167,-4.5177,-4.5185,-4.5192,-4.52,-4.5199,-4.5199,-4.5195,-4.5163,-4.5155,-4.518,-4.5179,-4.5179,-4.5179,-4.5179,-4.5161,-4.5155,-4.5175,-4.5183,-4.5198,-4.5211,-4.5212,-4.5227,-4.5233,-4.524,-4.5236,-4.5212,-4.5209,-4.5207,-4.52,-4.5235,-4.5235,-4.5235,-4.5235,-4.5178,-4.5178,-4.52,-4.5213,-4.5226,-4.5229,-4.5252,-4.5258,-4.5264,-4.5267,-4.5262,-4.5254,-4.5251,-4.525,-4.5247,-4.5241,-4.5285,-4.5285,-4.5285,-4.5199,-4.52,-4.522,-4.5227,-4.5239,-4.5249,-4.5271,-4.5286,-4.529,-4.5287,-4.5271,-4.5269,-4.5255,-4.525,-4.5246,-4.5241,-4.523,0,0]}]]